Location: Unspecified
(0.0000°N, 0.0000°E)
Time: 17:27:28
(UTC+00:00)

Vanguard 2 Rocket - Visible Passes

Search period start: 16 September 2014 00:00
Search period end: 26 September 2014 00:00
Orbit: 554 x 3336 km, 32.9° (Epoch: 16 September)

Date Brightness Start Highest point End Pass type
(mag) Time Alt. Az. Time Alt. Az. Time Alt. Az.
16 Sep 10.3 05:28:11 10° S 05:35:24 17° SSE 05:44:38 10° ESE visible
16 Sep 8.5 19:27:16 10° NNW 19:31:16 17° NNE 19:31:16 17° NNE visible
17 Sep 8.9 18:28:42 10° N 18:32:09 13° NNE 18:35:00 10° NE visible
17 Sep 9.3 20:41:35 10° NW 20:42:23 13° NW 20:42:23 13° NW visible
18 Sep 7.8 19:42:36 10° NW 19:47:36 32° N 19:47:36 32° N visible
19 Sep 10.2 04:47:11 10° S 04:52:50 15° SE 04:59:57 10° ESE visible
19 Sep 8.2 18:43:24 10° NNW 18:49:55 24° NNE 18:52:51 17° ENE visible
19 Sep 9.5 20:58:27 10° WNW 20:58:47 11° WNW 20:58:47 11° WNW visible
20 Sep 7.5 19:58:51 10° NW 20:04:05 47° NW 20:04:05 47° NW visible
21 Sep 9.9 05:02:08 10° S 05:09:58 23° SE 05:21:11 10° E visible
21 Sep 7.3 18:59:10 10° NW 19:07:18 47° NNE 19:09:24 33° E visible
22 Sep 10.1 04:06:33 10° SSE 04:10:30 13° SE 04:15:15 10° ESE visible
22 Sep 8.1 20:15:54 10° WNW 20:20:42 36° W 20:20:42 36° W visible
23 Sep 9.7 05:17:42 10° SSW 05:26:37 36° SE 05:40:42 10° E visible
23 Sep 6.9 19:15:37 10° NW 19:24:15 87° SW 19:26:05 46° SE visible
24 Sep 9.7 04:20:56 10° S 04:27:26 21° SE 04:36:43 10° E visible
24 Sep 7.6 18:15:17 10° NW 18:25:39 59° NNE 18:31:30 10° ESE visible
24 Sep 9.0 20:34:01 10° W 20:37:27 19° WSW 20:37:27 19° WSW visible
25 Sep 9.9 03:26:42 10° SSE 03:28:23 11° SE 03:30:12 10° SE visible
25 Sep 7.8 19:32:50 10° WNW 19:40:46 44° SW 19:42:52 32° S visible
